Location: Piotrkow Trybunalski
(51.4000°N, 19.6830°E)
Time: 03:52:56
(UTC+02:00)

A-11 Canister half - Pass Details

Date: 06 February 2023
Orbit: 1526 x 1682 km, 47.3° (Epoch: 24 March)

Event Time Altitude Azimuth Distance (km) Brightness Sun altitude
Rises 02:46:42 0° 181° (S) 4,678 - -40.7°
Reaches altitude 10° 02:51:16 10° 162° (SSE) 3,689 - -40.1°
Exits shadow 02:52:47 13° 153° (SSE) 3,459 10.8 -39.9°
Maximum altitude 02:56:22 16° 128° (SE) 3,219 10.8 -39.4°
Drops below altitude 10° 03:01:27 10° 94° (E) 3,700 11.6 -38.7°
Sets 03:06:01 0° 75° (ENE) 4,699 12.5 -38.0°
